OpenBCM V1.08-5-g2f4a (Linux)

Packet Radio Mailbox

IZ3LSV

[San Dona' di P. JN]

 Login: GUEST





  
I0OJJ  > KEPS     30.01.25 05:49l 336 Lines 15891 Bytes #77 (0) @ AMSAT
BID : ORB25030.1
Read: GUEST
Subj: 2Line Orbital Elements 25030.AMSAT
Path: IZ3LSV<I0OJJ<I0OJJ
Sent: 250130/0345z @:I0OJJ.ITA.EU [Rome] obcm1.08-6-g5b69

>From i0ojj%i0ojj.ita.eu@i0ojj.ampr.org Thu Jan 30 04:45:09 2025
Received: from i0ojj.ampr.org by i0ojj.ampr.org (JNOS2.0p.5) with SMTP
	id AA17019941 ; Thu, 30 Jan 2025 04:45:09 +0100
Message-Id: <ORB25030.1@i0ojj.bbs>
>From: i0ojj@i0ojj.ita.eu
X-JNOS-User-Port: Uplink   (I0OJJ-2 on port hub)  ->  Sending message

From: I0OJJ @ I0OJJ.ITA.EU (Gustavo)
To:   KEPS @ AMSAT
X-Info: This message was generated automatically


QST de W1STR

AMSAT Orbital Elements for Amateur Satellites in TLE Format
>From Orbital Analysis Office
New England Sci-Tech STEM Education Center
Natick, MA January 30, 2025
To all radio amateurs


These element sets describe the orbits of various satellites 
in use by the amateur radio community. For details see:
www.amsat.org/keplerian-elements-formats/

A daily update of element sets is available at:
www.amsat.org/tle/daily-bulletin.txt
or without bulletin text:
www.amsat.org/tle/dailytle.txt


AO-07
1 07530U 74089B   25029.80152006 -.00000041  00000-0  35530-4 0  9999
2 07530 101.9924  32.6778 0012239  12.9316 161.6490 12.53685568297672
UO-11
1 14781U 84021B   25029.49676689  .00003332  00000-0  36337-3 0  9995
2 14781  97.7368 358.6661 0009247  56.6861 303.5240 14.88581890182136
AO-27
1 22825U 93061C   25029.09432207  .00000325  00000-0  14159-3 0  9996
2 22825  98.7575  89.8810 0009184 133.7406 226.4538 14.30717915634913
FO-29
1 24278U 96046B   25029.44176822  .00000078  00000-0  11740-3 0  9991
2 24278  98.5884 300.5081 0349459 322.4278  35.2901 13.53234447405034
NOAA-15
1 25338U 98030A   25029.82634878  .00000364  00000-0  16760-3 0  9991
2 25338  98.5495  58.0198 0010653  27.7469 332.4278 14.26869732389753
GO-32
1 25397U 98043D   25029.53491241  .00000239  00000-0  12381-3 0  9999
2 25397  98.9547   6.0341 0000865 172.6130 187.5061 14.24243614379630
ISS
1 25544U 98067A   25029.97928241  .00018235  00000-0  31876-3 0  9997
2 25544  51.6386 271.5905 0002054 143.9990  42.7673 15.50702605493721
NO-44
1 26931U 01043C   25029.52053737  .00000502  00000-0  21953-3 0  9999
2 26931  67.0508 106.6677 0006147 262.5984  97.4420 14.31601289218345
SO-50
1 27607U 02058C   25029.57926020  .00002543  00000-0  34244-3 0  9990
2 27607  64.5526 244.6860 0040399   7.9220 352.2513 14.80857137189820
CO-55
1 27844U 03031E   25029.48758789  .00000857  00000-0  39381-3 0  9993
2 27844  98.6784  39.4510 0009250 202.1429 157.9351 14.23792487119983
CO-57
1 27848U 03031J   25029.51652490  .00000730  00000-0  34246-3 0  9998
2 27848  98.6810  39.5813 0008848 219.8060 140.2470 14.23157142119724
RS-22
1 27939U 03042A   25029.83188333  .00002833  00000-0  46255-3 0  9995
2 27939  98.3112 196.2771 0012578  65.9994  41.4391 14.71673050141590
NOAA-18
1 28654U 05018A   25029.81553970  .00000394  00000-0  23247-3 0  9992
2 28654  98.8543 110.7214 0014950 138.5345 221.6964 14.13501071 15276
CO-58
1 28895U 05043F   25029.60882376  .00003848  00000-0  64848-3 0  9998
2 28895  98.2270 172.5700 0014973   5.7484 354.3891 14.70037400 27699
CO-65
1 32785U 08021C   25029.47977097  .00010848  00000-0  83393-3 0  9994
2 32785  97.7659   0.0345 0008587 304.9425  55.0992 15.01871954909387
AAUSAT2
1 32788U 08021F   25029.49249971  .00101201  00000-0  21443-2 0  9993
2 32788  97.6049  20.3961 0007658  94.5311 265.6812 15.44686163912898
CO-66
1 32791U 08021J   25029.44323951  .00021388  00000-0  12033-2 0  9995
2 32791  97.7156   7.1603 0002056 241.8618 118.2405 15.13278107910623
RS-30
1 32953U 08025A   25029.78403934  .00000042  00000-0  22823-3 0  9999
2 32953  82.5057 308.5451 0019439 333.9745  26.0356 12.43158002757284
NOAA-19
1 33591U 09005A   25029.80074254  .00000351  00000-0  21154-3 0  9998
2 33591  99.0169  93.6758 0013893  17.2017 342.9623 14.13272150823634
SRMSAT
1 37841U 11058D   25029.58664559  .00000629  00000-0  19876-3 0  9995
2 37841  19.9700 227.2035 0011802  64.2766 330.2158 14.11348704686583
ZACUBE-1
1 39417U 13066B   25029.45568817  .00008866  00000-0  81314-3 0  9990
2 39417  97.7643 347.5098 0047568 128.2344 232.3172 14.94241565605318
Delfi-N3xt
1 39428U 13066N   25029.33917161  .00014529  00000-0  15823-2 0  9993
2 39428  97.8389 308.7408 0092004  72.0672 289.0547 14.85006915599570
GOMX-1
1 39430U 13066Q   25029.68382020  .00004864  00000-0  77407-3 0  9992
2 39430  97.7007 256.3091 0133251 251.0306 107.6420 14.66651551596212
LO-74
1 39440U 13066AA  25029.37086146  .00009259  00000-0  98067-3 0  9997
2 39440  97.8371 335.1354 0062727 252.0559 107.3813 14.87899927601917
AO-73
1 39444U 13066AE  25029.40093208  .00013699  00000-0  11181-2 0  9996
2 39444  97.7484 351.4160 0043786 104.8456 255.7623 14.98782929603919
DTUSAT-2
1 40030U 14033W   25029.33659484  .00013786  00000-0  97543-3 0  9994
2 40030  98.0392 355.2455 0011260 135.3806 224.8327 15.04931644576637
EO-80
1 40032U 14033Y   25029.43070949  .00015169  00000-0  10700-2 0  9996
2 40032  98.0297 355.1744 0011346  85.2986 274.9535 15.05020932576626
XW-2C
1 40906U 15049H   25029.80429891  .00434696  75936-4  12399-2 0  9999
2 40906  97.4396  63.7924 0004211 159.1570 200.9877 15.93245245519778
LILACSAT-2
1 40908U 15049K   25029.79845262  .00016966  00000-0  51192-3 0  9990
2 40908  97.5162  47.3264 0008261 268.9298  91.0998 15.34322074518146
IO-86
1 40931U 15052B   25029.03811298  .00001879  00000-0  16388-3 0  9994
2 40931   5.9985 178.0957 0012329  44.5838 315.5281 14.78544596504930
Horyu-4
1 41340U 16012D   25029.41161679  .00032732  00000-0  11353-2 0  9997
2 41340  30.9979 288.8181 0005856 138.6824 221.4263 15.28596871492640
Lapan A3
1 41603U 16040E   25029.82175258  .00006564  00000-0  24017-3 0  9999
2 41603  97.1384  39.6785 0012036  25.2563 334.9264 15.28307075477806
CAS-2T
1 41847U 16066G   25029.44028309  .00003812  00000-0  55476-3 0  9995
2 41847  98.4355 105.0198 0348015 214.8867 142.9067 14.42809560432109
CAS-4B
1 42759U 17034B   25029.82853879  .00046357  00000-0  92974-3 0  9999
2 42759  43.0133  10.7530 0014572 100.8251 259.4248 15.45853538422251
CAS-4A
1 42761U 17034D   25029.79830164  .00046566  00000-0  92045-3 0  9991
2 42761  43.0173   8.9328 0015689 107.9062 252.3509 15.46256021422268
TechnoSat
1 42829U 17042E   25029.45131571  .00006615  00000-0  53355-3 0  9996
2 42829  97.3912 204.5263 0013083  24.3804 335.8037 15.00128811411053
AO-91
1 43017U 17073E   25029.18474617  .00019272  00000-0  10527-2 0  9997
2 43017  97.5483 263.3906 0182810 253.8788 104.2245 15.01107188389474
S-Net D
1 43186U 18014G   25029.29259615  .00010667  00000-0  66901-3 0  9998
2 43186  97.5749 293.6546 0008537 325.2458  34.8212 15.09473684382552
S-Net B
1 43187U 18014H   25029.29648678  .00010414  00000-0  65340-3 0  9996
2 43187  97.5755 293.6229 0009159 319.2080  40.8462 15.09460234382554
S-Net A
1 43188U 18014J   25029.29338794  .00010681  00000-0  66972-3 0  9990
2 43188  97.5760 293.7541 0009086 320.0993  39.9567 15.09478212382551
S-Net C
1 43189U 18014K   25029.29860277  .00010519  00000-0  65982-3 0  9997
2 43189  97.5779 293.7505 0010414 310.9434  49.0893 15.09458425381105
Ten-Koh
1 43677U 18084G   25029.51617202  .00005573  00000-0  46196-3 0  9999
2 43677  98.0811 196.6152 0012626 343.7931  16.2885 14.99200542340590
PO-101
1 43678U 18084H   25029.85198019  .00002923  00000-0  25807-3 0  9999
2 43678  98.0895 201.1572 0008985   5.8545 354.2779 14.97192094340813
QO-100
1 43700U 18090A   25029.56577272  .00000153  00000-0  00000-0 0  9990
2 43700   0.0160  73.8511 0000903 245.6739  38.9737  1.00270159 22620
MinXSS-2
1 43758U 18099A   25029.43585326  .00025688  00000-0  12108-2 0  9991
2 43758  97.5228  95.4984 0012323 255.4466 104.5401 15.19411221337010
AO-95
1 43770U 18099N   25029.11880605  .00017297  00000-0  97355-3 0  9993
2 43770  97.5133  88.8685 0010775 312.2874  47.7443 15.13259467336645
RANGE-A
1 43773U 18099R   25029.56213627  .00009079  00000-0  61023-3 0  9991
2 43773  97.4695  81.7977 0010673 283.3341  76.6697 15.06942820336477
MOVE-II
1 43780U 18099Y   25029.22479686  .00077940  00000-0  19721-2 0  9990
2 43780  97.4875  99.0486 0003823 262.6156  97.4655 15.39466156337391
SNUSat 2
1 43782U 18099AA  25029.40245502  .00013934  00000-0  82953-3 0  9991
2 43782  97.4823  86.9053 0011522 244.4716 115.5323 15.11276056336667
SnugLite
1 43784U 18099AC  25029.10968671  .00017629  00000-0  98539-3 0  9991
2 43784  97.4633  85.9741 0002642 247.0609 113.0344 15.13546956336728
ITASat 1
1 43786U 18099AE  25029.41429881  .00012972  00000-0  79823-3 0  9993
2 43786  97.4791  86.7694 0014055 301.9284  58.0578 15.10062940336642
EAGLET 1
1 43790U 18099AJ  25029.11737970  .00008658  00000-0  57999-3 0  9992
2 43790  97.4973  86.7890 0011383 281.5744  78.4206 15.07078853336259
ESEO
1 43792U 18099AL  25029.71247208  .00002873  00000-0  22527-3 0  9992
2 43792  97.4664  82.3053 0008810 233.2761 126.7655 15.01701462336174
CSIM
1 43793U 18099AM  25029.47088597  .00089846  00000-0  22737-2 0  9997
2 43793  97.5047 101.2401 0007451 236.4854 123.5680 15.39390624337277
JO-97
1 43803U 18099AX  25029.72705686  .00017739  00000-0  92437-3 0  9999
2 43803  97.4873  90.2616 0007230 238.0417 122.0113 15.16024019336910
Suomi 100
1 43804U 18099AY  25029.42794914  .00018488  00000-0  10105-2 0  9992
2 43804  97.4950  89.5656 0012270 241.5858 118.4137 15.14277742336826
ISAT
1 43879U 18111D   25029.24761936  .00030985  00000-0  13445-2 0  9993
2 43879  97.6059 301.4068 0008541 307.7520  52.2941 15.22250175333667
UWE-4
1 43880U 18111E   25029.47214796  .00025886  00000-0  12084-2 0  9999
2 43880  97.5993 300.8818 0012161 316.4379  43.5894 15.19747025333675
Sparrow
1 43881U 18111F   25029.31942719  .00032385  00000-0  13704-2 0  9998
2 43881  97.6178 303.9129 0007789 355.5994   4.5172 15.23099352333751
